Content
SEND FEEDBACK

Daily
Averages
Monthly
Summary
United States of America

WILMINGTON, NORTH CAROLINA


Home > North America > United States > North Carolina
Elevation: 72 feet     Latitude: 34 16N     Longitude: 077 54W

WEATHER
 
SELECT A DAY
Number of Records: 213,178;   Date Range: 1/1/95 - 11/22/14
 
SHARE

PRINT THIS DATA

[ ← Previous Day ]
WEATHER ALMANAC - JULY 30, 2014
[ Next Day → ]
[ °C ]   °F
Weather ElementAverageHighLow
Temperature76.5 °F84 °F (9:53 am)68 °F (5:53 am)
Dewpoint66.5 °F70 °F (2:53 am)62.1 °F (5:53 am)
Humidity73.4 %100 % (3:48 pm)49 % (6:53 pm)
Barometer30.02 in30.06 in (2:53 pm)29.96 in (4:53 am)
Wind Speed6.1 mph11.5 mph (10:53 am)
Wind Gust18.4 mph (12:53 pm)
Weather ElementAverage
Visibility9.8 mi
Wind DirectionENE (59.6 °)

Weather ElementTotal
Precipitation---
Cooling Degree Days11 (Base 65)
Growing Degree Days26 (Base 50)
Averaged from 24 records on July 30, 2014
WEATHER CONDITIONS BREAKOUT
WIND DIRECTION BREAKOUT
WEATHER BY HOUR - JULY 30, 2014
[ °C ]   °F
Local TimeTemperatureDewpointHumidityBarometerVisibilityWind DirectionWind SpeedGust SpeedPrecipitationEventsConditions
12:53 AM70.0 °F69.1 °F97 %29.97 in9.0 miCalmOvercast
1:53 AM69.8 °F69.8 °F100 %29.96 in9.0 miCalmClear
2:53 AM69.1 °F68.0 °F96 %29.96 in9.0 miNNE (30°)3.5 mphClear
3:53 AM70.0 °F68.0 °F93 %29.96 in9.0 miNorth (10°)3.5 mphClear
4:53 AM69.1 °F66.9 °F93 %29.97 in9.0 miNNE (30°)4.6 mphClear
5:53 AM68.0 °F66.9 °F96 %29.98 in10.0 miNE (40°)4.6 mphClear
6:53 AM69.1 °F66.9 °F93 %30.01 in9.0 miNNE (30°)3.5 mphClear
7:53 AM73.0 °F69.1 °F87 %30.02 in10.0 miNE (40°)5.8 mphClear
8:53 AM77.0 °F70.0 °F79 %30.02 in10.0 miENE (60°)6.9 mphClear
9:53 AM80.1 °F68.0 °F67 %30.04 in10.0 miENE (70°)5.8 mphClear
10:53 AM81.0 °F66.9 °F62 %30.05 in10.0 miEast (80°)6.9 mphClear
11:53 AM82.9 °F66.0 °F56 %30.06 in10.0 miENE (70°)9.2 mphPartly Cloudy
12:53 PM82.4 °F64.4 °F54 %30.05 in10.0 miEast (80°)10.4 mphClear
1:53 PM84.0 °F64.9 °F53 %30.05 in10.0 miEast (80°)10.4 mph18.4 mphClear
2:53 PM84.0 °F64.9 °F53 %30.04 in10.0 miENE (70°)11.5 mphClear
3:53 PM84.0 °F63.0 °F49 %30.03 in10.0 miEast (100°)11.5 mphClear
4:53 PM82.9 °F62.1 °F49 %30.02 in10.0 miEast (90°)8.1 mphClear
5:53 PM82.0 °F64.0 °F54 %30.01 in10.0 miEast (100°)10.4 mphClear
6:53 PM80.1 °F64.0 °F58 %30.03 in10.0 miEast (90°)8.1 mphClear
7:53 PM78.8 °F64.4 °F61 %30.03 in10.0 miEast (100°)5.8 mphClear
8:53 PM78.1 °F64.9 °F64 %30.04 in10.0 miEast (100°)3.5 mphClear
9:53 PM75.0 °F66.9 °F76 %30.06 in10.0 miENE (60°)3.5 mphClear
10:53 PM73.0 °F68.0 °F84 %30.06 in10.0 miNE (40°)3.5 mphClear
11:53 PM71.6 °F68.0 °F88 %30.06 in10.0 miENE (60°)4.6 mphClear
Hourly data recorded from KILM, located miles away from Wilmington, North Carolina







STORIES FROM OUR PARTNERS